• Join FlightAware (Why Join?)
  • Login
  • US Flag 
10:42AM EDT


 

Airport Tracker/Info


-or-


 

Live Flight TrackerFlight Track Log ✈ EJM685 ✈ 10-Aug-2013 ✈ KFOK - KTEB

Flight Track Log - Related Links

Times and Time Zones

All times are in EDT time to prevent confusion due to time zone crossing. See the EJM685 flight status page for this flight to view local times or setup timezone preferences in your user account.

Time Position Orientation Groundspeed Altitude Reporting Facility
EDT Latitude Longitude Course Direction KTS MPH feet Rate Location/Type
01:13AM 40.8500 -72.7167 303° West 230 265 5,200  Level New York TRACON
01:14AM 40.8833 -72.7833 303° West 260 299 6,100 420 Climbing New York TRACON
01:15AM 40.9167 -72.8667 298° West 259 298 6,100  Level New York TRACON
01:16AM 40.9667 -72.9500 308° West 256 295 6,100  Level New York TRACON
01:17AM 41.0000 -73.0167 304° West 256 295 6,100  Level New York TRACON
01:18AM 41.0500 -73.1000 309° West 253 291 6,100  Level New York TRACON
01:19AM 41.0833 -73.1833 298° West 259 298 6,100  Level New York TRACON
01:20AM 41.1167 -73.2667 298° West 257 296 6,100  Level New York TRACON
01:21AM 41.1667 -73.3333 315° West 257 296 6,100  Level New York TRACON
01:23AM 41.2000 -73.4333 294° West 266 306 6,100  Level New York TRACON
01:23AM 41.1833 -73.5000 252° West 256 295 6,100  Level New York TRACON
01:24AM 41.1667 -73.6000 258° West 252 290 6,100  Level New York TRACON
01:25AM 41.1500 -73.6833 255° West 255 293 6,100 -240 Level New York TRACON
01:26AM 41.1333 -73.7833 258° West 251 289 5,700 -1,080 Descending New York TRACON
01:27AM 41.1167 -73.8667 255° West 247 284 4,100 -1,620 Descending New York TRACON
01:28AM 41.0833 -73.9500 242° Southwest 249 287 2,500 -960 Descending New York TRACON
01:29AM 41.0333 -74.0000 217° Southwest 222 255 2,100 -240 Descending New York TRACON
01:30AM 40.9833 -74.0167 194° South 198 228 2,100 -120 Level New York TRACON
01:31AM 40.9500 -74.0333 201° Southwest 159 183 1,900 -540 Descending New York TRACON
01:32AM 40.9000 -74.0500 194° South 152 175 1,100 -840 Descending New York TRACON
01:34AM 40.8500 -74.0500 118° Southeast  Level FlightAware Approximate
01:41AM 40.8501 -74.0608 118° Southeast  Level Estimated
01:42AM 40.8501 -74.0608 118° Southeast  Level Estimated